Venice, FL

8:20 AM EDT on May 21, 2018 (GMT -0400)
Venice Municipal

Weather History for KVNC - April, 2013

Change the Weather History Date:

Thursday, April 18, 2013

  Actual Average Record
Temperature  
Mean Temperature 76 °F -  
Max Temperature 84 °F 80 °F 88 °F (1982)
Min Temperature 68 °F 59 °F 49 °F (1976)
Cooling Degree Days 11    
Growing Degree Days 26 (Base 50)    
Moisture  
Dew Point 69 °F    
Average Humidity 79    
Maximum Humidity 94    
Minimum Humidity 58    
Precipitation  
Precipitation 0.00 in - - ()
Sea Level Pressure  
Sea Level Pressure 30.01 in    
Wind  
Wind Speed 10 mph (SE)    
Max Wind Speed 16 mph    
Max Gust Speed 23 mph    
Visibility 10 miles    
Events      
Averages and records for this station are not official NWS values.
T = Trace of Precipitation, MM = Missing Value Source: NWS Daily Summary

Daily Weather History Graph

Daily Weather History Graph

Search for Another Location

Airport or City:

Astronomy

Apr. 18, 2013 Rise Set
Actual Time 7:02 AM EDT 7:55 PM EDT
Civil Twilight 6:38 AM EDT 8:19 PM EDT
Nautical Twilight 6:10 AM EDT 8:48 PM EDT
Astronomical Twilight 5:41 AM EDT 9:17 PM EDT
Moon 1:18 PM EDT (4/18) 2:02 AM EDT (4/18)
Length of Visible Light 13h 41m
Length of Day
12h 53m
First Quarter, 51% of the Moon is Illuminated
Apr 18
First Quarter
Apr 25
Full
May 2
Last Quarter
May 9
New
May 18
First Quarter

Hourly Weather History & Observations

Time (EDT) Temp. Heat Index Dew Point Humidity Pressure Visibility Wind Dir Wind Speed Gust Speed Precip Events Conditions
12:15 AM 73.4 °F - 64.4 °F 73% 30.06 in 10.0 mi East 12.7 mph 17.3 mph N/A   Clear
12:35 AM 73.4 °F - 64.4 °F 73% 30.05 in 10.0 mi East 12.7 mph 16.1 mph N/A   Clear
12:55 AM 73.4 °F - 64.4 °F 73% 30.04 in 10.0 mi East 12.7 mph 18.4 mph N/A   Clear
1:15 AM 71.6 °F - 64.4 °F 78% 30.04 in 10.0 mi East 11.5 mph 17.3 mph N/A   Clear
1:35 AM 71.6 °F - 64.4 °F 78% 30.04 in 10.0 mi East 11.5 mph - N/A   Clear
1:55 AM 71.6 °F - 64.4 °F 78% 30.03 in 10.0 mi East 9.2 mph - N/A   Clear
2:15 AM 71.6 °F - 64.4 °F 78% 30.03 in 10.0 mi East 10.4 mph - N/A   Clear
2:35 AM 71.6 °F - 64.4 °F 78% 30.02 in 10.0 mi East 9.2 mph - N/A   Clear
2:55 AM 69.8 °F - 66.2 °F 88% 30.02 in 10.0 mi East 8.1 mph - N/A   Clear
3:15 AM 69.8 °F - 66.2 °F 88% 30.02 in 10.0 mi East 8.1 mph - N/A   Clear
3:35 AM 69.8 °F - 66.2 °F 88% 30.02 in 10.0 mi ENE 6.9 mph - N/A   Scattered Clouds
3:55 AM 68.0 °F - 66.2 °F 94% 30.02 in 10.0 mi ENE 6.9 mph - N/A   Overcast
4:15 AM 68.0 °F - 66.2 °F 94% 30.02 in 10.0 mi ENE 6.9 mph - N/A   Scattered Clouds
4:35 AM 68.0 °F - 66.2 °F 94% 30.01 in 10.0 mi ENE 6.9 mph - N/A   Mostly Cloudy
4:55 AM 68.0 °F - 66.2 °F 94% 30.02 in 10.0 mi ENE 6.9 mph - N/A   Overcast
5:15 AM 68.0 °F - 66.2 °F 94% 30.02 in 10.0 mi East 8.1 mph - N/A   Overcast
5:35 AM 68.0 °F - 66.2 °F 94% 30.02 in 10.0 mi East 6.9 mph - N/A   Overcast
5:55 AM 68.0 °F - 66.2 °F 94% 30.02 in 10.0 mi East 8.1 mph - N/A   Overcast
6:15 AM 69.8 °F - 66.2 °F 88% 30.02 in 10.0 mi East 8.1 mph - N/A   Overcast
6:35 AM 69.8 °F - 66.2 °F 88% 30.02 in 10.0 mi ESE 8.1 mph - N/A   Overcast
6:55 AM 69.8 °F - 66.2 °F 88% 30.03 in 10.0 mi ESE 6.9 mph - N/A   Overcast
7:15 AM 71.6 °F - 66.2 °F 83% 30.03 in 10.0 mi ESE 6.9 mph - N/A   Overcast
7:35 AM 71.6 °F - 66.2 °F 83% 30.04 in 10.0 mi SE 5.8 mph - N/A   Overcast
7:55 AM 71.6 °F - 66.2 °F 83% 30.04 in 10.0 mi ESE 6.9 mph - N/A   Overcast
8:15 AM 71.6 °F - 66.2 °F 83% 30.04 in 10.0 mi ESE 6.9 mph - N/A   Overcast
8:35 AM 73.4 °F - 66.2 °F 78% 30.04 in 10.0 mi East 8.1 mph - N/A   Overcast
8:55 AM 73.4 °F - 68.0 °F 83% 30.04 in 10.0 mi ESE 6.9 mph - N/A   Mostly Cloudy
9:15 AM 75.2 °F - 68.0 °F 78% 30.04 in 10.0 mi East 6.9 mph - N/A   Mostly Cloudy
9:35 AM 75.2 °F - 68.0 °F 78% 30.04 in 10.0 mi East 6.9 mph - N/A   Mostly Cloudy
9:55 AM 75.2 °F - 68.0 °F 78% 30.04 in 10.0 mi East 10.4 mph - N/A   Mostly Cloudy
10:15 AM 77.0 °F - 68.0 °F 74% 30.04 in 10.0 mi East 10.4 mph - N/A   Mostly Cloudy
10:35 AM 78.8 °F - 69.8 °F 74% 30.04 in 8.0 mi East 9.2 mph - N/A   Mostly Cloudy
10:55 AM 80.6 °F 83.9 °F 69.8 °F 70% 30.04 in 10.0 mi East 8.1 mph - N/A   Scattered Clouds
11:15 AM 82.4 °F 85.4 °F 68.0 °F 62% 30.03 in 10.0 mi SE 9.2 mph - N/A   Clear
11:35 AM 82.4 °F 85.4 °F 68.0 °F 62% 30.03 in 10.0 mi SE 10.4 mph 16.1 mph N/A   Scattered Clouds
11:55 AM 84.2 °F 87.3 °F 68.0 °F 58% 30.02 in 10.0 mi East 9.2 mph - N/A   Mostly Cloudy
12:15 PM 84.2 °F 89.6 °F 71.6 °F 66% 30.02 in 10.0 mi South 10.4 mph 16.1 mph N/A   Mostly Cloudy
12:35 PM 82.4 °F 87.2 °F 71.6 °F 70% 30.02 in 10.0 mi South 16.1 mph 19.6 mph N/A   Scattered Clouds
12:55 PM 82.4 °F 85.4 °F 68.0 °F 62% 30.02 in 10.0 mi South 15.0 mph - N/A   Partly Cloudy
1:15 PM 84.2 °F 88.4 °F 69.8 °F 62% 30.02 in 10.0 mi South 15.0 mph - N/A   Clear
1:35 PM 82.4 °F 86.3 °F 69.8 °F 66% 30.01 in 10.0 mi South 15.0 mph 23.0 mph N/A   Clear
1:55 PM 82.4 °F 86.3 °F 69.8 °F 66% 30.01 in 10.0 mi South 13.8 mph 20.7 mph N/A   Clear
2:15 PM 84.2 °F 88.4 °F 69.8 °F 62% 30.01 in 10.0 mi SSW 11.5 mph - N/A   Clear
2:35 PM 82.4 °F 87.2 °F 71.6 °F 70% 30.00 in 10.0 mi SSW 12.7 mph - N/A   Clear
2:55 PM 82.4 °F 87.2 °F 71.6 °F 70% 30.01 in 10.0 mi SSW 12.7 mph - N/A   Clear
3:15 PM 80.6 °F 84.6 °F 71.6 °F 74% 30.00 in 10.0 mi SSW 11.5 mph - N/A   Clear
3:35 PM 82.4 °F 86.3 °F 69.8 °F 66% 29.99 in 10.0 mi SSW 11.5 mph - N/A   Partly Cloudy
3:55 PM 82.4 °F 86.3 °F 69.8 °F 66% 29.98 in 10.0 mi SSW 11.5 mph - N/A   Clear
4:35 PM 82.4 °F 87.2 °F 71.6 °F 70% 29.97 in 10.0 mi SW 11.5 mph - N/A   Clear
4:55 PM 80.6 °F 84.6 °F 71.6 °F 74% 29.97 in 10.0 mi SW 11.5 mph - N/A   Clear
5:15 PM 80.6 °F 84.6 °F 71.6 °F 74% 29.97 in 10.0 mi SW 11.5 mph - N/A   Clear
5:35 PM 80.6 °F 84.6 °F 71.6 °F 74% 29.97 in 10.0 mi SW 9.2 mph - N/A   Clear
5:55 PM 80.6 °F 85.4 °F 73.4 °F 79% 29.97 in 10.0 mi SSW 8.1 mph - N/A   Clear
6:15 PM 80.6 °F 85.4 °F 73.4 °F 79% 29.96 in 10.0 mi SSW 8.1 mph - N/A   Clear
6:35 PM 80.6 °F 85.4 °F 73.4 °F 79% 29.97 in 10.0 mi SSW 6.9 mph - N/A   Clear
6:55 PM 78.8 °F - 73.4 °F 83% 29.97 in 10.0 mi SSW 8.1 mph - N/A   Clear
7:15 PM 78.8 °F - 73.4 °F 83% 29.97 in 10.0 mi South 9.2 mph - N/A   Scattered Clouds
7:35 PM 77.0 °F - 73.4 °F 89% 29.97 in 10.0 mi South 5.8 mph - N/A   Partly Cloudy
7:55 PM 77.0 °F - 73.4 °F 89% 29.97 in 10.0 mi South 5.8 mph - N/A   Clear
8:15 PM 77.0 °F - 73.4 °F 89% 29.98 in 10.0 mi South 5.8 mph - N/A   Partly Cloudy
8:35 PM 77.0 °F - 73.4 °F 89% 29.98 in 10.0 mi South 5.8 mph - N/A   Scattered Clouds
8:55 PM 77.0 °F - 73.4 °F 89% 29.99 in 10.0 mi South 4.6 mph - N/A   Mostly Cloudy
9:15 PM 77.0 °F - 73.4 °F 89% 30.00 in 10.0 mi SE 4.6 mph - N/A   Mostly Cloudy
9:35 PM 77.0 °F - 73.4 °F 89% 30.00 in 10.0 mi SSE 6.9 mph - N/A   Overcast
11:35 PM 77.0 °F - 73.4 °F 89% 30.01 in 10.0 mi South 8.1 mph - N/A   Mostly Cloudy
11:55 PM 77.0 °F - 73.4 °F 89% 30.01 in 10.0 mi SE 4.6 mph - N/A   Scattered Clouds